212  
ASUS42 KMLB 170907  
RWRMLB  
HOURLY WEATHER ROUNDUP AROUND FLORIDA  
NATIONAL WEATHER SERVICE OFFICE MELBOURNE FL  
500 AM EDT FRI AUG 17 2018  
 
CITY SKY/WX TMP DP RH WIND PRES REMARKS
 
MELBOURNE FAIR 80 74 81 CALM 30.15F  
FORT PIERCE FAIR 75 74 96 CALM 30.15F  
ORLANDO INTL CLOUDY 77 76 96 SE3 30.16F  
DAYTONA BEACH FAIR 75 75 100 CALM 30.17F  
VERO BEACH FAIR 78 76 93 SE5 30.15F  

   
..ELSEWHERE ACROSS CENTRAL FLORIDA
 
 
 
CITY SKY/WX TMP DP RH WIND PRES REMARKS
 
PATRICK AFB FAIR 80 80 100 CALM 30.15F  
KSC FAIR 77 76 96 CALM 30.15F  
CAPE CANAVERAL FAIR 77 75 94 SE3 30.15S FOG  
ORLANDO EXEC FAIR 79 76 90 CALM 30.17S  
LEESBURG FAIR 79 76 90 SE7 30.16F  
SANFORD FAIR 76 74 93 CALM 30.16F  
DELAND FAIR 73 73 100 CALM 30.17S  
WINTER HAVEN FAIR 77 75 93 E3 30.18S  
KISSIMMEE FAIR 78 75 90 SE3 30.18S  
OKEECHOBEE FAIR 73 72 94 CALM 30.15S  
TAMPA FAIR 74 72 93 NE6 30.16S  

   
..NORTHERN FLORIDA
 
 
 
CITY SKY/WX TMP DP RH WIND PRES REMARKS
 
PALM COAST FAIR 74 73 96 SE3 30.16F  
ST AUGUSTINE FAIR 77 74 90 S5 30.18S  
OCALA FAIR 74 73 97 CALM 30.16F  
GAINESVILLE FAIR 76 72 87 CALM 30.19S  
JACKSONVILLE MOCLDY 73 72 96 CALM 30.16S  
TALLAHASSEE FAIR 76 75 97 CALM 30.14F  

   
..ALONG THE SOUTHEAST COAST TO THE KEYS
 
 
 
CITY SKY/WX TMP DP RH WIND PRES REMARKS
 
STUART FAIR 79 75 89 CALM 30.16F  
WEST PALM BCH FAIR 82 75 79 E9 30.15F  
MIAMI FAIR 81 76 84 E7 30.14S  
KEY WEST NOT AVBL  

   
..MARINE REPORTS
 
 
 
STATION/POSITION TIME TEMP WIND PRES WAVE SWELL
 
AIR SEA DIR/SP/G HT/PER HT/PER  
(UTC) (F) (DEG/KT/KT) (MB) (FT/S) (FT/S)  
ST AUGUSTINE FP 0900 78 78 180/ 8/ 8 1021.6F  
20NM E CAPE CANA 0850 84 140/ 12/ 14 1021.5F 3/ 9 2/ 9  
TRIDENT PIER 0848 79 82 130/ 3/ 4 1022.8F  
SEBASTIAN INLET 0845 79 80 150/ 6 1022.0S  
SETTLEMENT PT GB 0900 83 100/ 11/ 13 1021.4F  

 
 
 
CLICK HERE TO GO TO PREVIOUS BULLETINS.

The Nexlab FL Page Main Text Page